This is the latest recevied weather packets stored in our database for station/object K7AEL. If no packets are shown the sender has not sent any weather packets the latest 10 day(s).
| Time | Temp. | Humidity | Pressure | Rain* | Wind** | Luminosity | Snow |
|---|---|---|---|---|---|---|---|
| 1777825520 | 26.67° C | 32% | 1014.9 hPa | 0 mm | - | 216 W/m² | - |
| 1777825218 | 26.67° C | 32% | 1014.9 hPa | 0 mm | - | 216 W/m² | - |
| 1777824914 | 26.67° C | 33% | 1014.9 hPa | 0 mm | - | 216 W/m² | - |
| 1777824610 | 26.11° C | 33% | 1014.9 hPa | 0 mm | - | 238 W/m² | - |
| 1777824308 | 26.11° C | 33% | 1014.8 hPa | 0 mm | - | 268 W/m² | - |
| 1777824003 | 26.11° C | 33% | 1014.9 hPa | 0 mm | - | 239 W/m² | - |
| 1777823700 | 25.56° C | 34% | 1014.8 hPa | 0 mm | - | 234 W/m² | - |
| 1777823397 | 25.56° C | 34% | 1014.9 hPa | 0 mm | - | 197 W/m² | - |
| 1777823095 | 25.56° C | 34% | 1014.9 hPa | 0 mm | - | 187 W/m² | - |
| 1777822792 | 25.56° C | 35% | 1014.7 hPa | 0 mm | - | 157 W/m² | - |
| 1777822490 | 25.56° C | 34% | 1014.8 hPa | 0 mm | - | 169 W/m² | - |
| 1777822187 | 25.56° C | 34% | 1014.7 hPa | 0 mm | - | 189 W/m² | - |
| 1777821884 | 25.56° C | 35% | 1014.8 hPa | 0 mm | - | 170 W/m² | - |
| 1777821582 | 25.56° C | 34% | 1014.7 hPa | 0 mm | - | 194 W/m² | - |
| 1777821280 | 25° C | 35% | 1014.8 hPa | 0 mm | - | 212 W/m² | - |
| 1777820977 | 25° C | 35% | 1014.8 hPa | 0 mm | - | 189 W/m² | - |
| 1777820673 | 24.44° C | 36% | 1014.8 hPa | 0 mm | - | 143 W/m² | - |
| 1777820369 | 24.44° C | 36% | 1015 hPa | 0 mm | - | 122 W/m² | - |
| 1777820067 | 24.44° C | 36% | 1014.8 hPa | 0 mm | - | 106 W/m² | - |
| 1777819764 | 24.44° C | 36% | 1015 hPa | 0 mm | - | 108 W/m² | - |
| 1777819462 | 24.44° C | 36% | 1014.8 hPa | 0 mm | - | 101 W/m² | - |
| 1777819159 | 23.89° C | 36% | 1015 hPa | 0 mm | - | 105 W/m² | - |
| 1777818856 | 23.89° C | 36% | 1014.9 hPa | 0 mm | - | 107 W/m² | - |
| 1777818552 | 23.89° C | 37% | 1014.7 hPa | 0 mm | - | 99 W/m² | - |
| 1777818250 | 23.89° C | 37% | 1014.9 hPa | 0 mm | - | 95 W/m² | - |
* Rain latest hour (hover to see other rain measurements)
** Current wind speed in m/s (hover to see current wind gust speed)